Terug naar catalogus

COSMOS 2251 DEB

ActiefLEO
NORAD 35829·DEBRIS·🇷🇺 Russia

Gelanceerd Jun 16, 1993 vanaf Plesetsk Cosmodrome

Loading…

Volgende Passages (komende 24 uur)

TLE

VersSource: Space-Track

Epoch: Sep 14, 2026, 09:57 UTC

1 35829U 93036ATB 26257.41503120  .00007034  00000-0  87523-3 0  9998
2 35829  74.0205 275.4410 0011031 277.9466  82.0459 14.82654706918534

Volg COSMOS 2251 DEB in realtime met AllMySat

Download on the App Store